This is the latest recevied weather packets stored in our database for station/object KG5MMT-15. If no packets are shown the sender has not sent any weather packets the latest 10 day(s).
| Time | Temp. | Humidity | Pressure | Rain* | Wind** | Luminosity | Snow |
|---|---|---|---|---|---|---|---|
| 1788190072 | 22.78° C | 41% | 0 hPa | 0 mm | - | - | - |
| 1788189772 | 22.78° C | 43% | 0 hPa | 0 mm | - | - | - |
| 1788189472 | 22.22° C | 46% | 0 hPa | 0 mm | - | - | - |
| 1788189172 | 22.22° C | 46% | 0 hPa | 0 mm | - | - | - |
| 1788188872 | 21.67° C | 47% | 0 hPa | 0 mm | - | - | - |
| 1788188572 | 21.11° C | 48% | 0 hPa | 0 mm | - | - | - |
| 1788188272 | 21.67° C | 47% | 0 hPa | 0 mm | - | - | - |
| 1788187972 | 21.67° C | 49% | 0 hPa | 0 mm | - | - | - |
| 1788187672 | 21.67° C | 53% | 0 hPa | 0 mm | - | - | - |
| 1788187372 | 21.11° C | 54% | 0 hPa | 0 mm | - | - | - |
| 1788187072 | 20.56° C | 56% | 0 hPa | 0 mm | - | - | - |
| 1788186772 | 20° C | 60% | 0 hPa | 0 mm | - | - | - |
| 1788186472 | 18.89° C | 65% | 0 hPa | 0 mm | - | - | - |
| 1788186172 | 18.33° C | 67% | 0 hPa | 0 mm | - | - | - |
| 1788185872 | 18.33° C | 70% | 0 hPa | 0 mm | - | - | - |
| 1788185572 | 17.78° C | 71% | 0 hPa | 0 mm | - | - | - |
| 1788185272 | 17.78° C | 74% | 0 hPa | 0 mm | - | - | - |
| 1788184972 | 17.22° C | 74% | 0 hPa | 0 mm | - | - | - |
| 1788184672 | 17.22° C | 74% | 0 hPa | 0 mm | - | - | - |
| 1788184372 | 17.22° C | 75% | 0 hPa | 0 mm | - | - | - |
| 1788184072 | 17.22° C | 74% | 0 hPa | 0 mm | - | - | - |
| 1788183772 | 17.22° C | 73% | 0 hPa | 0 mm | - | - | - |
| 1788183472 | 17.22° C | 72% | 0 hPa | 0 mm | - | - | - |
| 1788183172 | 17.22° C | 73% | 0 hPa | 0 mm | - | - | - |
| 1788182872 | 17.22° C | 74% | 0 hPa | 0 mm | - | - | - |
* Rain latest hour (hover to see other rain measurements)
** Current wind speed in m/s (hover to see current wind gust speed)